User: anonymous   Login
Location: Baumgarten
(49.0970°N, 12.7493°E)
Time: 08:49:09
(UTC+00:00)
Language:

Cosmos 1842 Rocket - Orbit

View from above orbital plane
View from above orbital plane
View from above satellite
View from above satellite

Ground track
Ground track

The orbit data is extracted from the following two-line orbital elements,

1 17912U 87038B   20269.85919101 +.00000061 +00000-0 +46427-5 0  9994
2 17912 082.5054 007.4725 0018802 248.0450 111.8766 14.83047396784007
Epoch (UTC): 25 September 2020 20:37:14
Eccentricity: 0.0018802
inclination: 82.5054°
perigee height: 606 km
apogee height: 633 km
right ascension of ascending node: 7.4725°
argument of perigee: 248.0450°
revolutions per day: 14.83047396
mean anomaly at epoch: 111.8766°
orbit number at epoch: 78400

The dashed part of the orbit path shows where the satellite is in the earth's shadow,  

DLR